This is the latest recevied weather packets stored in our database for station/object WW3TRG. If no packets are shown the sender has not sent any weather packets the latest 10 day(s).
| Time | Temp. | Humidity | Pressure | Rain* | Wind** | Luminosity | Snow |
|---|---|---|---|---|---|---|---|
| 1778096213 | 16.11° C | 99% | 1006 hPa | 0 mm | - | 55 W/m² | - |
| 1778095910 | 16.11° C | 99% | 1005.9 hPa | 0 mm | - | 44 W/m² | - |
| 1778095606 | 16.11° C | 99% | 1006 hPa | 0 mm | - | 57 W/m² | - |
| 1778095302 | 16.11° C | 99% | 1005.9 hPa | 0 mm | - | 59 W/m² | - |
| 1778095000 | 16.11° C | 99% | 1006 hPa | 0 mm | - | 100 W/m² | - |
| 1778094696 | 16.11° C | 99% | 1006 hPa | 0 mm | - | 97 W/m² | - |
| 1778094393 | 16.11° C | 99% | 1006 hPa | 0 mm | - | 121 W/m² | - |
| 1778094090 | 16.11° C | 99% | 1006.2 hPa | 0 mm | - | 84 W/m² | - |
| 1778093787 | 16.11° C | 99% | 1006.3 hPa | 0 mm | - | 70 W/m² | - |
| 1778093483 | 15.56° C | 99% | 1006.3 hPa | 0 mm | - | 62 W/m² | - |
| 1778093181 | 16.11° C | 99% | 1006.4 hPa | 0 mm | - | 44 W/m² | - |
| 1778092878 | 15.56° C | 99% | 1006.5 hPa | 0 mm | - | 38 W/m² | - |
| 1778092574 | 15.56° C | 99% | 1006.2 hPa | 0.51 mm | - | 35 W/m² | - |
| 1778092270 | 15.56° C | 99% | 1006.8 hPa | 0 mm | - | 31 W/m² | - |
| 1778091968 | 15.56° C | 99% | 1006.5 hPa | 0 mm | - | 31 W/m² | - |
| 1778091665 | 15.56° C | 99% | 1006.6 hPa | 0 mm | - | 31 W/m² | - |
| 1778091363 | 15.56° C | 99% | 1006.5 hPa | 0.51 mm | - | 39 W/m² | - |
| 1778091060 | 16.11° C | 99% | 1006.6 hPa | 1.27 mm | - | 50 W/m² | - |
| 1778090756 | 15.56° C | 99% | 1006.6 hPa | 0.51 mm | - | 39 W/m² | - |
| 1778090453 | 15.56° C | 99% | 1006.6 hPa | 1.27 mm | - | 48 W/m² | - |
| 1778090149 | 15.56° C | 99% | 1006.9 hPa | 0.51 mm | - | 49 W/m² | - |
| 1778089845 | 15.56° C | 99% | 1007 hPa | 0.51 mm | - | 40 W/m² | - |
| 1778089545 | 15.56° C | 99% | 1006.5 hPa | 1.78 mm | - | 28 W/m² | - |
| 1778089240 | 15.56° C | 99% | 1006.8 hPa | 1.27 mm | - | 35 W/m² | - |
| 1778088938 | 15.56° C | 99% | 1006.5 hPa | 0 mm | - | 27 W/m² | - |
* Rain latest hour (hover to see other rain measurements)
** Current wind speed in m/s (hover to see current wind gust speed)